[[{"header":{"parameterUnit":"m.s-1","parameterCategory":1,"la1":30.2991,"la2":30.254,"lo1":-89.0895,"lo2":-89.0444,"dy":0.0017,"dx":0.0017,"nx":28,"ny":28,"refTime":"2025-07-06T09:00:00:Z","depth":0,"parameterNumber":2,"parameterNumberName":"U-component_of_WINDS"},"data":[0,0,0,0,0,0,0,0,0,0,0,0,0,0,0,0,0,0,0,0,0,0,0,0,0,0,0,0,0,0,0,0,0,0,0,0,0,0,0,0,0,0,0,0,0,0,0,0,0,0,0,0,0,0,0,0,0,0,2.1862,2.1863,0,2.1972,2.1973,2.1974,2.1988,2.1987,2.1986,2.1985,2.2102,2.2106,2.211,0,0,0,0,0,0,0,0,0,0,0,0,0,2.1669,2.1672,2.1862,2.1863,2.1865,2.1971,2.1973,2.1974,2.1988,2.1987,2.1985,2.1984,2.21,2.2105,2.211,0,0,0,0,0,0,0,0,0,0,0,0,0,2.1763,2.1674,2.1862,2.1884,2.1887,2.1971,2.1973,2.1975,2.1988,2.1987,2.1985,2.1984,2.2099,2.2105,2.2111,2.2181,0,0,2.213,2.2132,0,0,0,0,0,0,0,0,2.1758,2.177,2.188,2.1883,2.1886,2.1964,2.1948,2.2044,2.1989,2.195,2.1985,2.1983,2.2058,2.2067,2.2091,2.2187,2.2192,2.213,2.2134,2.2137,2.2138,0,0,0,0,0,0,0,2.1751,2.1766,2.1905,2.1881,2.1885,2.189,2.1902,2.1966,2.2012,2.1953,2.1955,2.1967,2.2059,2.2085,2.2094,2.2193,2.213,2.2136,2.2139,2.2142,2.2352,2.2354,0,0,0,0,0,0,2.174,2.176,2.1902,2.1909,2.1817,2.1895,2.1908,2.1941,2.2011,2.202,2.1968,2.1967,2.2076,2.2087,2.2098,2.2185,2.2137,2.2142,2.2146,2.235,2.2353,2.2355,0,0,0,0,0,0,2.1736,2.1752,2.1898,2.1835,2.1854,2.19,2.1937,2.1944,2.197,2.2022,2.2031,2.1986,2.2075,2.209,2.216,2.2189,2.2145,2.2151,2.2348,2.2351,2.2354,2.2359,0,0,0,0,0,0,2.173,2.1751,2.1777,2.1835,2.1857,2.1956,2.1939,2.1947,2.198,2.198,2.2041,2.205,2.2075,2.2151,2.2166,2.2197,2.2156,2.2346,2.235,2.2353,2.2357,2.2362,2.2366,0,0,0,0,0,2.1723,2.1775,2.1778,2.1795,2.189,2.1958,2.197,2.1996,2.1982,2.201,2.2043,2.2048,2.2184,2.2158,2.2176,2.2209,2.2344,2.2348,2.2353,2.2355,2.2361,2.2366,0,0,0,0,0,0,2.1721,2.1783,2.1787,2.1859,2.1903,2.196,2.1995,2.2002,2.2052,2.2049,2.2081,2.2095,2.2164,2.2194,2.2164,2.228,2.2263,2.2271,2.2258,2.2265,2.227,2.2261,2.2161,0,0,0,0,0,2.1728,2.1776,2.1829,2.1888,2.1909,2.1948,2.1979,2.1995,2.2042,2.2061,2.21,2.2146,2.2199,2.2234,2.2286,2.2361,2.2375,2.2393,2.2398,2.2401,2.2408,2.245,2.2458,2.2369,2.2369,2.2369,0,0,2.1745,2.1785,2.1814,2.1888,2.1924,2.1974,2.1964,2.2018,2.2056,2.207,2.2138,2.2168,2.2223,2.2296,2.233,2.2323,2.2436,2.2407,2.2409,2.2414,2.2455,2.2464,2.2471,2.2372,2.2371,2.2371,0,0,2.1801,2.1836,2.1888,2.1924,2.1977,2.2003,2.2016,2.2072,2.2092,2.2161,2.2172,2.2219,2.2309,2.2348,2.2379,2.2449,2.2456,2.2466,2.2491,2.2532,2.2539,2.2545,2.257,2.2579,2.2472,2.2472,2.2472,0,2.1815,2.189,2.1915,2.1968,2.2001,2.2014,2.2068,2.2102,2.217,2.2193,2.2184,2.2298,2.2335,2.2418,2.2434,2.246,2.2476,2.2458,2.2535,2.2542,2.2549,2.2573,2.2582,2.2473,2.2473,2.2473,2.2472,0,2.1905,2.1957,2.1993,2.2057,2.2094,2.2147,2.2182,2.2216,2.2229,2.2256,2.2326,2.2372,2.2433,2.2454,2.2468,2.2538,2.2532,2.2529,2.2512,2.2557,2.2581,2.259,2.2474,2.2474,2.2473,2.2473,0,0,2.1962,2.2039,2.2051,2.2081,2.2141,2.2182,2.2237,2.2295,2.2324,2.2371,2.2418,2.2495,2.2491,2.2527,2.2546,2.2581,2.2634,2.2574,2.2575,2.2583,2.2715,2.2716,2.2727,2.2639,2.2641,2.2642,2.271,0,2.2025,2.212,2.2144,2.2227,2.2275,2.2288,2.2336,2.2379,2.2406,2.2452,2.2483,2.2536,2.2528,2.255,2.2586,2.262,2.2661,2.2615,2.2684,2.2686,2.2669,2.2739,2.2741,2.2803,2.2719,2.2721,2.2722,0,2.211,2.2157,2.2244,2.2297,2.2319,2.2361,2.2416,2.246,2.2509,2.2526,2.2566,2.258,2.2639,2.2619,2.2701,2.2669,2.2699,2.272,2.2723,2.273,2.2706,2.2748,2.2823,2.2832,2.2737,2.2736,2.2735,0,2.2143,2.2228,2.2291,2.2315,2.238,2.2409,2.2437,2.2485,2.2518,2.2567,2.2589,2.2645,2.2676,2.2719,2.2749,2.2732,2.2829,2.2811,2.2845,2.2844,2.2865,2.2863,2.2946,2.2884,2.2884,2.2884,2.2884,0,2.221,2.2262,2.2306,2.2344,2.2404,2.2432,2.249,2.252,2.2562,2.2607,2.2623,2.2666,2.2702,2.2751,2.2775,2.2839,2.2853,2.2869,2.2874,2.2867,2.2865,2.2887,2.2883,2.2886,2.2886,2.2885,2.2885,0,2.2256,2.2287,2.2356,2.2411,2.2426,2.2468,2.2515,2.2554,2.2581,2.2639,2.2654,2.2697,2.2754,2.2788,2.2862,2.2878,2.2948,2.2953,2.2931,2.2934,2.2966,2.2962,2.3065,2.308,2.3009,2.3009,2.301,0,2.2296,2.2337,2.2396,2.2426,2.2455,2.2504,2.2538,2.2568,2.2602,2.2662,2.2693,2.2751,2.2799,2.289,2.2929,2.2985,2.299,2.3023,2.2999,2.299,2.299,2.2987,2.2992,2.3026,2.3027,2.3028,2.3028,0,2.2365,2.2378,2.2425,2.2478,2.2518,2.2561,2.2605,2.263,2.2667,2.2705,2.2763,2.28,2.2874,2.2931,2.299,2.3021,2.3031,2.3035,2.3046,2.3039,2.3024,2.3032,2.2941,2.3033,2.3032,2.3032,2.3032,2.3031,2.2409,2.2445,2.2492,2.2545,2.258,2.262,2.2659,2.2691,2.2739,2.28,2.2815,2.2876,2.2925,2.3005,2.3037,2.3086,2.3081,2.3097,2.3101,2.3104,2.3105,2.3016,2.3097,2.3097,2.3097,2.3097,2.3097,0,2.2478,2.2508,2.2556,2.2616,2.2657,2.2661,2.271,2.2744,2.2797,2.2841,2.2888,2.2954,2.301,2.3053,2.3111,2.3142,2.3148,2.3156,2.3154,2.3161,2.3106,2.3091,2.315,2.315,2.315,2.315,2.315,2.315,2.2518,2.258,2.2599,2.2679,2.271,2.2768,2.2795,2.2833,2.2868,2.2941,2.2987,2.3014,2.3058,2.3119,2.3171,2.3182,2.3203,2.321,2.3222,2.317,2.3164,2.3159,2.3145,2.3214,2.3214,2.3272,2.3273,2.3273]},{"header":{"parameterUnit":"m.s-1","parameterCategory":1,"la1":30.2991,"la2":30.254,"lo1":-89.0895,"lo2":-89.0444,"dy":0.0017,"dx":0.0017,"nx":28,"ny":28,"refTime":"2025-07-06T09:00:00:Z","depth":0,"parameterNumber":3,"parameterNumberName":"V-component_of_WINDS"},"data":[0,0,0,0,0,0,0,0,0,0,0,0,0,0,0,0,0,0,0,0,0,0,0,0,0,0,0,0,0,0,0,0,0,0,0,0,0,0,0,0,0,0,0,0,0,0,0,0,0,0,0,0,0,0,0,0,0,0,2.8994,2.8995,0,2.9016,2.9016,2.9016,2.9033,2.9033,2.9033,2.9033,2.9053,2.9054,2.9054,0,0,0,0,0,0,0,0,0,0,0,0,0,2.8964,2.8965,2.8994,2.8995,2.8995,2.9016,2.9016,2.9016,2.9033,2.9033,2.9033,2.9034,2.9053,2.9054,2.9054,0,0,0,0,0,0,0,0,0,0,0,0,0,2.8981,2.8965,2.8994,2.9006,2.9007,2.9016,2.9016,2.9016,2.9033,2.9033,2.9033,2.9034,2.9053,2.9054,2.9054,2.9053,0,0,2.9056,2.9056,0,0,0,0,0,0,0,0,2.898,2.8982,2.9004,2.9005,2.9006,2.9022,2.9013,2.9028,2.9033,2.9023,2.9033,2.9034,2.9043,2.9044,2.9047,2.9054,2.9054,2.9056,2.9056,2.9057,2.9057,0,0,0,0,0,0,0,2.8979,2.8981,2.9003,2.9004,2.9006,2.9009,2.9011,2.9016,2.9031,2.9024,2.9025,2.9028,2.9043,2.9047,2.9048,2.9055,2.9056,2.9056,2.9057,2.9057,2.9059,2.9059,0,0,0,0,0,0,2.8976,2.898,2.9002,2.9003,2.8993,2.9009,2.9012,2.9017,2.9031,2.9034,2.9027,2.9028,2.9046,2.9047,2.9049,2.9047,2.9057,2.9057,2.9057,2.9059,2.9059,2.9058,0,0,0,0,0,0,2.8975,2.8978,2.9001,2.8992,2.8995,2.9009,2.9014,2.9017,2.9021,2.9034,2.9036,2.9028,2.9046,2.9048,2.9051,2.9048,2.9057,2.9058,2.9059,2.9059,2.9059,2.9044,0,0,0,0,0,0,2.8974,2.8978,2.8978,2.8992,2.8996,2.9004,2.9014,2.9017,2.9022,2.9023,2.9035,2.9038,2.9046,2.905,2.9052,2.9049,2.9058,2.906,2.9059,2.9059,2.9045,2.9043,2.9042,0,0,0,0,0,2.8973,2.8973,2.8978,2.8981,2.8997,2.9004,2.9006,2.9017,2.9021,2.9021,2.9029,2.9037,2.9048,2.9051,2.9052,2.905,2.906,2.9059,2.9059,2.9046,2.9043,2.9042,0,0,0,0,0,0,2.8958,2.8975,2.8981,2.8985,2.8993,2.9007,2.9008,2.9015,2.9021,2.9022,2.9034,2.9037,2.9038,2.9044,2.9047,2.9048,2.9055,2.9055,2.9044,2.9042,2.9041,2.9039,2.9059,0,0,0,0,0,2.8955,2.8961,2.8975,2.8978,2.8981,2.8993,2.8997,2.9005,2.9013,2.9016,2.9025,2.9032,2.9037,2.904,2.9045,2.9046,2.9048,2.9044,2.9043,2.9041,2.9041,2.904,2.9038,2.9056,2.9056,2.9056,0,0,2.895,2.896,2.8962,2.8975,2.8982,2.8986,2.8996,2.9001,2.9004,2.9017,2.9021,2.9027,2.9035,2.9037,2.9038,2.9042,2.9036,2.904,2.9039,2.904,2.9039,2.9037,2.9036,2.9056,2.9056,2.9056,0,0,2.8942,2.895,2.8952,2.8959,2.8969,2.8977,2.8978,2.899,2.8995,2.8999,2.9008,2.9011,2.902,2.9025,2.9029,2.9021,2.9027,2.9022,2.9014,2.9013,2.9011,2.901,2.9006,2.9004,2.9021,2.9021,2.9021,0,2.8933,2.8941,2.8953,2.8956,2.8961,2.8973,2.8974,2.898,2.8991,2.8993,2.8998,2.9008,2.9014,2.9016,2.9014,2.9017,2.9017,2.9021,2.9011,2.9009,2.9008,2.9005,2.9003,2.9021,2.9021,2.9021,2.9021,0,2.8929,2.8934,2.8935,2.8946,2.895,2.8953,2.8963,2.8966,2.8973,2.898,2.8982,2.8991,2.8997,2.8998,2.9005,2.9001,2.9003,2.9008,2.9016,2.9006,2.9002,2.9001,2.9019,2.902,2.902,2.902,0,0,2.8914,2.893,2.893,2.8934,2.8945,2.8949,2.8951,2.8958,2.8959,2.8966,2.8968,2.8974,2.8979,2.8983,2.899,2.8989,2.898,2.8995,2.8995,2.8991,2.8975,2.897,2.8969,2.8985,2.8985,2.8984,2.8974,0,2.8907,2.8913,2.8922,2.8924,2.8928,2.8939,2.894,2.8947,2.8953,2.8956,2.8962,2.8966,2.8973,2.8975,2.8975,2.8982,2.8977,2.8982,2.8985,2.8985,2.8983,2.8967,2.8963,2.8952,2.8973,2.8973,2.8973,0,2.8901,2.8907,2.8909,2.8919,2.8921,2.8922,2.8928,2.8931,2.8938,2.8942,2.8946,2.8954,2.8955,2.8961,2.8963,2.8966,2.8967,2.8971,2.897,2.8971,2.8978,2.8967,2.895,2.8948,2.8971,2.8971,2.8971,0,2.8888,2.8897,2.8899,2.8902,2.8914,2.8914,2.8919,2.8926,2.8929,2.8934,2.8935,2.894,2.8942,2.8945,2.8953,2.8957,2.8953,2.896,2.8955,2.8955,2.8954,2.8954,2.8937,2.8956,2.8956,2.8956,2.8956,0,2.888,2.888,2.8893,2.8895,2.8895,2.8905,2.8905,2.8911,2.8916,2.8918,2.8927,2.8928,2.8938,2.894,2.8946,2.8945,2.8947,2.8949,2.8951,2.8948,2.8948,2.8949,2.895,2.8955,2.8955,2.8955,2.8955,0,2.8866,2.8875,2.8878,2.8888,2.889,2.889,2.8898,2.8899,2.8905,2.8907,2.8908,2.8917,2.8919,2.8927,2.8932,2.8935,2.8933,2.8936,2.893,2.8931,2.8926,2.8926,2.8909,2.8906,2.8927,2.8927,2.8927,0,2.886,2.8861,2.8871,2.8873,2.8877,2.888,2.8882,2.8892,2.8894,2.89,2.89,2.8903,2.8906,2.8909,2.8916,2.8918,2.8921,2.8915,2.8922,2.8919,2.892,2.892,2.892,2.8914,2.8913,2.8913,2.8913,0,2.8849,2.8852,2.8856,2.8861,2.8864,2.8868,2.8872,2.8873,2.8883,2.8885,2.8887,2.8889,2.8893,2.8896,2.89,2.8903,2.8909,2.8911,2.8909,2.8907,2.8904,2.8904,2.8926,2.8911,2.8911,2.8911,2.8911,2.8912,2.8838,2.8839,2.8845,2.8849,2.8853,2.8856,2.8857,2.8863,2.8865,2.887,2.8874,2.8876,2.8881,2.8886,2.8889,2.889,2.8893,2.8892,2.8891,2.8891,2.8889,2.8903,2.889,2.889,2.8891,2.8891,2.8891,0,2.8827,2.8831,2.8834,2.8839,2.8842,2.8847,2.8852,2.8853,2.8854,2.8858,2.8861,2.8863,2.8865,2.8871,2.8873,2.8872,2.8875,2.8872,2.8872,2.8873,2.8886,2.8887,2.887,2.887,2.887,2.887,2.887,2.887,2.8821,2.8822,2.8826,2.8828,2.8832,2.8834,2.8836,2.8838,2.8842,2.8843,2.8845,2.8849,2.8853,2.8855,2.8857,2.8858,2.8858,2.8855,2.8857,2.887,2.8872,2.8874,2.8874,2.8855,2.8855,2.8843,2.8843,2.8843]}]]